Home > Weather > Kryvyi Rih > Past weeks

Flag for Ukraine Weather for the Past 2 Weeks in Kryvyi Rih, Ukraine

Now
37 °F

Light rain. Fog.


Feels Like: 31 °F
Forecast: 39 / 47 °F
Wind: 8 mph from Southeast

Location: Krivyy Rih / Dnipropetrovs'k

Current Time: Feb 14, 2016 at 12:09:50 AM

Latest Report: Feb 13, 2016 at 11:30 PM


Visibility: 1 mi

Pressure: 29.65 "Hg

Humidity: 93%

Dew point: 36 °F

Location of Kryvyi RihLocation

Historic Weather in Kryvyi Rih — Graph

°F

Kryvyi Rih Temperature Yesterday

Maximum temperature yesterday: 37 °F (at 2:00 PM)
Minimum temperature yesterday: 34 °F (at 2:00 AM)
Average temperature yesterday: 35 °F

High & Low Weather Summary for the Past Weeks

 TemperatureHumidityPressure
High43 °F (Feb 10, 4:00 PM)100% (Jan 30, 6:00 AM)30.42 "Hg (Jan 30, 6:00 AM)
Low18 °F (Feb 7, 4:00 AM)65% (Feb 6, 12:00 PM)29.59 "Hg (Feb 11, 1:00 PM)
Average32 °F88%30.05 "Hg
* Reported Jan 29 11:00 PM — Feb 13 11:00 PM, Kryvyi Rih, Weather by CustomWeather, © 2016

Note: Actual official high and low records may vary slightly from our data, if they occured in-between our weather recording intervals... More about our weather records

Advertising

Kryvyi Rih Weather History for the Previous 24 Hours

 ConditionsComfort  
Time TempWeatherWind HumidityBarometerVisibility
11:00 PM
Sat, Feb 13
37 °FLight rain. Fog.10 mph93%29.65 "Hg2 mi
10:30 PM36 °FLight rain. Fog.13 mph93%29.68 "Hg1 mi
10:00 PM36 °FLight rain. Fog.13 mph93%29.68 "Hg1 mi
9:30 PM36 °FRain. Fog.10 mph93%29.71 "Hg1 mi
9:00 PM36 °FLight rain. Fog.13 mph93%29.71 "Hg3 mi
8:30 PM36 °FLight rain. Fog.13 mph93%29.71 "Hg2 mi
8:00 PM36 °FLight rain. Fog.10 mph93%29.74 "Hg2 mi
7:30 PM36 °FLight rain. Fog.10 mph93%29.74 "Hg2 mi
7:00 PM36 °FLight rain. Fog.8 mph93%29.77 "Hg1 mi
6:30 PM36 °FLight rain. Low clouds.8 mph93%29.77 "Hg1 mi
6:00 PM36 °FLight rain. Low clouds.10 mph93%29.80 "Hg1 mi
5:30 PM36 °FLight rain. Low clouds.13 mph87%29.80 "Hg2 mi
5:00 PM36 °FLow clouds.13 mph87%29.80 "HgN/A
4:30 PM36 °FLow clouds.10 mph87%29.80 "HgN/A
4:00 PM36 °FLow clouds.10 mph87%29.80 "HgN/A
3:30 PM37 °FOvercast.13 mph81%29.83 "HgN/A
3:00 PM37 °FLow clouds.10 mph81%29.83 "HgN/A
2:30 PM37 °FLow clouds.10 mph87%29.86 "HgN/A
2:00 PM37 °FOvercast.10 mph87%29.86 "HgN/A
1:30 PM36 °FOvercast.10 mph93%29.89 "HgN/A
1:00 PM36 °FLow clouds.8 mph93%29.89 "HgN/A
12:30 PM36 °FFog.6 mph93%29.92 "Hg2 mi
12:00 PM36 °FFog.8 mph93%29.92 "Hg2 mi
11:30 AM34 °FFog.8 mph100%29.95 "Hg1 mi
11:00 AM34 °FFog.8 mph100%29.98 "Hg1 mi
10:30 AM34 °FFog.8 mph100%29.98 "Hg0 mi
10:00 AM34 °FFog.8 mph100%29.98 "Hg0 mi
9:30 AM34 °FFog.6 mph100%29.98 "Hg0 mi
9:00 AM34 °FFog.6 mph100%29.98 "Hg0 mi
8:30 AM34 °FFog.6 mph100%29.98 "Hg1 mi
8:00 AM34 °FFog.1 mph100%29.98 "Hg1 mi
7:30 AM34 °FFog.3 mph100%29.98 "Hg0 mi
7:00 AM34 °FFog.6 mph100%29.98 "Hg0 mi
6:30 AM36 °FFog.6 mph100%29.98 "Hg0 mi
6:00 AM36 °FFog.6 mph100%29.98 "Hg0 mi
5:30 AM36 °FFog.3 mph100%29.98 "Hg0 mi
5:00 AM36 °FFog.6 mph100%29.98 "Hg0 mi
4:30 AM36 °FFog.3 mph100%29.98 "Hg0 mi
4:00 AM36 °FFog.6 mph100%29.98 "Hg0 mi
3:30 AM34 °FFog.3 mph100%29.98 "Hg0 mi
3:00 AM34 °FFog.3 mph100%29.98 "Hg0 mi
2:30 AM34 °FFog.3 mph100%29.98 "Hg0 mi
2:00 AM34 °FFog.3 mph100%30.01 "Hg0 mi
1:00 AM36 °FFog.3 mph100%30.01 "Hg0 mi
12:00 AM36 °FFog.1 mph100%30.01 "Hg0 mi
Weather by CustomWeather, © 2016

See weather overviewHow to use our weather pages